When you browse on this site, cookies collect data to enhance your experience and personalize the content and advertising you see.
Visit our Privacy Policy to learn more. By continuing to use the site, you agree to this use of cookies and data.
  • In Portugal
  • List of Countries
  • For 7 days
  • Water Temperature
  • Weather Map
  • Weather Widgets
  • user-avatar
    Login

    Hourly Weather Bolgatanga

    Today, 28 February, Friday

    Time Temperature Precipitation Wind Pressure Humidity
    00:00 +29°C° 0 mm 1 mps 741 mmHg 14%
    01:00 +28°C° 0 mm 2 mps 741 mmHg 14%
    02:00 +27°C° 0 mm 2 mps 741 mmHg 14%
    03:00 +27°C° 0 mm 3 mps 740 mmHg 15%
    04:00 +26°C° 0 mm 3 mps 741 mmHg 15%
    05:00 +25°C° 0 mm 3 mps 741 mmHg 15%
    06:00 +25°C° 0 mm 3 mps 741 mmHg 15%
    07:00 +28°C° 0 mm 3 mps 742 mmHg 13%
    08:00 +31°C° 0 mm 3 mps 743 mmHg 11%
    09:00 +35°C° 0 mm 4 mps 743 mmHg 9%
    10:00 +37°C° 0 mm 3 mps 743 mmHg 8%
    11:00 +39°C° 0 mm 3 mps 742 mmHg 8%
    12:00 +42°C° 0 mm 3 mps 742 mmHg 7%
    13:00 +42°C° 0 mm 2 mps 741 mmHg 7%
    14:00 +43°C° 0 mm 1 mps 740 mmHg 6%
    15:00 +44°C° 0 mm 1 mps 739 mmHg 6%
    16:00 +42°C° 0 mm 1 mps 739 mmHg 7%
    17:00 +39°C° 0 mm 1 mps 739 mmHg 8%
    18:00 +36°C° 0 mm 1 mps 739 mmHg 9%
    19:00 +35°C° 0 mm 1 mps 740 mmHg 10%
    20:00 +33°C° 0 mm 1 mps 740 mmHg 11%
    21:00 +31°C° 0 mm 1 mps 741 mmHg 12%
    22:00 +31°C° 0 mm 1 mps 741 mmHg 12%
    23:00 +30°C° 0 mm 2 mps 741 mmHg 13%

    Tomorrow, 29 February, Saturday

    Time Temperature Precipitation Wind Pressure Humidity
    00:00 +30°C° 0 mm 2 mps 740 mmHg 13%
    01:00 +29°C° 0 mm 2 mps 740 mmHg 13%
    02:00 +28°C° 0 mm 2 mps 740 mmHg 13%
    03:00 +28°C° 0 mm 2 mps 739 mmHg 13%
    04:00 +27°C° 0 mm 2 mps 740 mmHg 14%
    05:00 +26°C° 0 mm 2 mps 740 mmHg 14%
    06:00 +26°C° 0 mm 2 mps 740 mmHg 15%
    07:00 +28°C° 0 mm 2 mps 741 mmHg 13%
    08:00 +31°C° 0 mm 2 mps 741 mmHg 11%
    09:00 +35°C° 0 mm 2 mps 742 mmHg 9%
    10:00 +37°C° 0 mm 2 mps 742 mmHg 8%
    11:00 +40°C° 0 mm 2 mps 741 mmHg 7%
    12:00 +43°C° 0 mm 3 mps 741 mmHg 6%
    13:00 +43°C° 0 mm 2 mps 740 mmHg 6%
    14:00 +45°C° 0 mm 2 mps 739 mmHg 5%
    15:00 +45°C° 0 mm 1 mps 738 mmHg 5%
    16:00 +42°C° 0 mm 1 mps 738 mmHg 6%
    17:00 +40°C° 0 mm 1 mps 738 mmHg 7%
    18:00 +35°C° 0 mm 0 mps 738 mmHg 8%
    19:00 +35°C° 0 mm 1 mps 738 mmHg 9%
    20:00 +34°C° 0 mm 1 mps 739 mmHg 10%
    21:00 +32°C° 0 mm 1 mps 739 mmHg 11%
    22:00 +32°C° 0 mm 1 mps 739 mmHg 11%
    23:00 +31°C° 0 mm 1 mps 739 mmHg 12%

    Day after tomorrow, 1 March, Sunday

    Time Temperature Precipitation Wind Pressure Humidity
    00:00 +30°C° 0 mm 2 mps 739 mmHg 12%
    01:00 +30°C° 0 mm 2 mps 739 mmHg 12%
    02:00 +29°C° 0 mm 2 mps 739 mmHg 13%
    03:00 +28°C° 0 mm 2 mps 739 mmHg 13%
    04:00 +28°C° 0 mm 2 mps 739 mmHg 13%
    05:00 +27°C° 0 mm 2 mps 739 mmHg 14%
    06:00 +26°C° 0 mm 2 mps 739 mmHg 14%
    07:00 +29°C° 0 mm 2 mps 740 mmHg 13%
    08:00 +32°C° 0 mm 2 mps 741 mmHg 12%
    09:00 +35°C° 0 mm 2 mps 742 mmHg 10%
    10:00 +38°C° 0 mm 2 mps 741 mmHg 9%
    11:00 +40°C° 0 mm 2 mps 741 mmHg 8%
    12:00 +43°C° 0 mm 2 mps 740 mmHg 8%
    13:00 +43°C° 0 mm 2 mps 740 mmHg 7%
    14:00 +45°C° 0 mm 2 mps 739 mmHg 7%
    15:00 +45°C° 0 mm 1 mps 738 mmHg 7%
    16:00 +43°C° 0 mm 1 mps 738 mmHg 8%
    17:00 +41°C° 0 mm 1 mps 738 mmHg 9%
    18:00 +39°C° 0 mm 1 mps 737 mmHg 10%
    19:00 +36°C° 0 mm 1 mps 738 mmHg 10%
    20:00 +34°C° 0 mm 1 mps 739 mmHg 11%
    21:00 +33°C° 0 mm 1 mps 739 mmHg 12%
    22:00 +32°C° 0 mm 1 mps 739 mmHg 12%
    23:00 +31°C° 0 mm 1 mps 739 mmHg 13%

    2 March, Monday

    Time Temperature Precipitation Wind Pressure Humidity
    00:00 +28°C° 0 mm 0 mps 739 mmHg 13%
    01:00 +30°C° 0 mm 1 mps 739 mmHg 14%
    02:00 +30°C° 0 mm 2 mps 739 mmHg 15%
    03:00 +30°C° 0 mm 2 mps 739 mmHg 16%
    04:00 +29°C° 0 mm 2 mps 739 mmHg 23%
    05:00 +28°C° 0 mm 1 mps 740 mmHg 31%
    06:00 +27°C° 0 mm 1 mps 740 mmHg 38%
    07:00 +29°C° 0 mm 2 mps 741 mmHg 40%
    08:00 +31°C° 0 mm 3 mps 742 mmHg 42%
    09:00 +34°C° 0 mm 4 mps 743 mmHg 44%
    10:00 +36°C° 0 mm 4 mps 742 mmHg 37%
    11:00 +39°C° 0 mm 3 mps 742 mmHg 30%
    12:00 +42°C° 0 mm 3 mps 741 mmHg 23%
    13:00 +42°C° 0 mm 2 mps 740 mmHg 20%
    14:00 +44°C° 0 mm 1 mps 740 mmHg 17%
    15:00 +42°C° 0 mm 0 mps 739 mmHg 13%
    16:00 +43°C° 0 mm 1 mps 739 mmHg 15%
    17:00 +41°C° 0 mm 1 mps 738 mmHg 17%
    18:00 +39°C° 0 mm 1 mps 738 mmHg 19%
    19:00 +37°C° 0 mm 1 mps 739 mmHg 21%
    20:00 +33°C° 0 mm 0 mps 739 mmHg 23%
    21:00 +32°C° 0 mm 0 mps 740 mmHg 25%
    22:00 +31°C° 0 mm 0 mps 740 mmHg 26%
    23:00 +31°C° 0 mm 0 mps 740 mmHg 27%

    3 March, Tuesday

    Time Temperature Precipitation Wind Pressure Humidity
    00:00 +30°C° 0 mm 0 mps 740 mmHg 28%
    01:00 +31°C° 0 mm 1 mps 740 mmHg 30%
    02:00 +31°C° 0 mm 1 mps 740 mmHg 31%
    03:00 +31°C° 0 mm 2 mps 739 mmHg 33%
    04:00 +30°C° 0 mm 2 mps 740 mmHg 42%
    05:00 +29°C° 0 mm 2 mps 740 mmHg 50%
    06:00 +28°C° 0 mm 2 mps 741 mmHg 59%
    07:00 +30°C° 0 mm 2 mps 741 mmHg 55%
    08:00 +33°C° 0 mm 3 mps 742 mmHg 51%
    09:00 +35°C° 0 mm 4 mps 743 mmHg 47%
    10:00 +37°C° 0 mm 3 mps 742 mmHg 40%
    11:00 +39°C° 0 mm 3 mps 742 mmHg 33%
    12:00 +41°C° 0 mm 2 mps 741 mmHg 27%
    13:00 +42°C° 0 mm 2 mps 740 mmHg 25%
    14:00 +42°C° 0 mm 1 mps 739 mmHg 23%
    15:00 +39°C° 0 mm 0 mps 738 mmHg 20%
    16:00 +41°C° 0 mm 1 mps 738 mmHg 22%
    17:00 +40°C° 0 mm 1 mps 739 mmHg 24%
    18:00 +38°C° 0 mm 2 mps 739 mmHg 26%
    19:00 +37°C° 0 mm 2 mps 739 mmHg 27%
    20:00 +36°C° 0 mm 2 mps 740 mmHg 29%
    21:00 +34°C° 0 mm 1 mps 740 mmHg 31%
    22:00 +33°C° 0 mm 1 mps 740 mmHg 33%
    23:00 +32°C° 0 mm 1 mps 740 mmHg 36%

    4 March, Wednesday

    Time Temperature Precipitation Wind Pressure Humidity
    00:00 +31°C° 0 mm 1 mps 741 mmHg 38%
    01:00 +31°C° 0 mm 1 mps 740 mmHg 41%
    02:00 +30°C° 0 mm 1 mps 740 mmHg 44%
    03:00 +28°C° 0 mm 0 mps 740 mmHg 47%
    04:00 +29°C° 0 mm 1 mps 740 mmHg 49%
    05:00 +29°C° 0 mm 1 mps 741 mmHg 51%
    06:00 +29°C° 0 mm 2 mps 741 mmHg 53%
    07:00 +31°C° 0 mm 3 mps 742 mmHg 50%
    08:00 +34°C° 0 mm 3 mps 742 mmHg 47%
    09:00 +35°C° 0 mm 4 mps 743 mmHg 44%
    10:00 +38°C° 0 mm 3 mps 742 mmHg 37%
    11:00 +40°C° 0 mm 3 mps 742 mmHg 31%
    12:00 +42°C° 0 mm 2 mps 741 mmHg 24%
    13:00 +42°C° 0 mm 2 mps 740 mmHg 22%
    14:00 +43°C° 0 mm 1 mps 739 mmHg 20%
    15:00 +40°C° 0 mm 0 mps 738 mmHg 18%
    16:00 +42°C° 0 mm 1 mps 738 mmHg 19%
    17:00 +41°C° 0 mm 1 mps 739 mmHg 20%
    18:00 +40°C° 0 mm 1 mps 739 mmHg 22%
    19:00 +38°C° 0 mm 2 mps 739 mmHg 24%
    20:00 +37°C° 0 mm 2 mps 740 mmHg 26%
    21:00 +36°C° 0 mm 2 mps 740 mmHg 29%
    22:00 +35°C° 0 mm 2 mps 740 mmHg 35%
    23:00 +34°C° 0 mm 3 mps 740 mmHg 42%
    Show more